Погода в Майкоре

Россия / Пермский край     59°00′10″N   55°52′54″E
темп.,
°C
ветер,
м/с
пор.,
м/с
влажн.,
%
обл.,
%
осадки,
мм/ч
давл.,
гПа
погр.,
м
25 января, вт
вт2523:00−12юз4109384 0.0 1031246
02:00−10юз51389100 0.0 1029391
05:00−9юз51486100 0.0 1028451
08:00−9зюз51285100 0.0 1026421
11:00−10юз4118742 0.0 1025321
14:00−9юз4108647 0.0 1024323
17:00−10юз499081 0.0 1024230
20:00−12ююз389440 0.0 1024202
26 января, ср
ср2623:00−14ююз379736 0.0 1024115
02:00−16ююз369761 0.0 1023109
05:00−17ю369857 0.0 102380
08:00−19ююв369789 0.0 102390
11:00−19ю279833 0.0 1023126
14:00−14ю359469 0.0 1022188
17:00−15ююв259966 0.0 102268
20:00−17ю2210076 0.0 102228
27 января, чт
чт2723:00−19ю2210097 0.0 102114
02:00−18ююв1110095 0.1 102018
05:00−18ююв11100100 0.1 101913
08:00−15ююв1197100 0.1 101854
11:00−13ююв2394100 0.4 1017132
14:00−10ююз249198 0.1 1017317
17:00−10ююз249580 0.3 1017125
20:00−11ююз269686 0.1 1018142
28 января, пт
пт2823:00−11ююз379685 0.2 1018215
02:00−15ююз249974 0.1 101958
05:00−18ю2410079 0.1 102058
08:00−16ю269796 0.1 1020154
11:00−14ю279688 0.3 1020166
14:00−11ю3694100 0.0 1020268
17:00−12ю359888 0.1 102183
20:00−16ю2310088 0.0 102146
29 января, сб
сб2923:00−17ююв2210096 0.0 102140
02:00−14ююв239869 0.1 102161
05:00−20юв2210084 0.1 102012
08:00−19вюв11100100 0.0 102010
11:00−13вюв2395100 0.0 101885
14:00−10юв2491100 0.0 1016147
17:00−9юв2496100 0.0 1015110
20:00−9юв2498100 0.3 101375